TimeCST,TemperatureF,Dew PointF,Humidity,Sea Level PressureIn,VisibilityMPH,Wind Direction,Wind SpeedMPH,Gust SpeedMPH,PrecipitationIn,Events,Conditions,WindDirDegrees,DateUTC
12:54 AM,54.0,43.0,66,29.84,10.0,South,15.0,-,N/A,,Partly Cloudy,190,2011-11-26 06:54:00
1:54 AM,55.0,44.1,67,29.85,10.0,South,13.8,-,N/A,,Overcast,190,2011-11-26 07:54:00
2:54 AM,55.0,46.0,72,29.85,10.0,South,9.2,-,N/A,,Overcast,180,2011-11-26 08:54:00
3:07 AM,55.4,46.4,72,29.85,10.0,South,10.4,-,N/A,,Overcast,190,2011-11-26 09:07:00
3:17 AM,55.4,46.4,72,29.84,10.0,South,8.1,-,N/A,,Overcast,180,2011-11-26 09:17:00
3:41 AM,55.4,46.4,72,29.85,8.0,South,9.2,-,0.00,Rain,Light Rain,190,2011-11-26 09:41:00
3:54 AM,53.1,48.0,83,29.84,4.0,South,8.1,-,0.00,Rain,Light Rain,190,2011-11-26 09:54:00
4:54 AM,51.1,48.9,92,29.82,3.0,SSE,6.9,-,0.02,Rain,Light Rain,160,2011-11-26 10:54:00
5:04 AM,51.8,48.2,88,29.82,4.0,South,8.1,-,0.00,Rain,Light Rain,170,2011-11-26 11:04:00
5:12 AM,51.8,48.2,88,29.82,5.0,South,8.1,-,0.00,Rain,Light Rain,180,2011-11-26 11:12:00
5:45 AM,51.8,48.2,88,29.82,5.0,South,9.2,-,0.01,Rain,Light Rain,180,2011-11-26 11:45:00
5:54 AM,51.8,48.2,88,29.83,5.0,South,10.4,-,N/A,Rain,Light Rain,190,2011-11-26 11:54:00
6:11 AM,51.8,50.0,94,29.84,3.0,South,8.1,-,0.01,Rain,Light Rain,190,2011-11-26 12:11:00
6:26 AM,51.8,50.0,94,29.84,2.5,South,8.1,-,N/A,Rain,Light Rain,180,2011-11-26 12:26:00
6:37 AM,51.8,50.0,94,29.84,3.0,South,6.9,-,0.04,Rain,Light Rain,180,2011-11-26 12:37:00
6:52 AM,51.8,51.8,100,29.83,5.0,South,6.9,-,0.04,,Overcast,180,2011-11-26 12:52:00
6:54 AM,52.0,51.1,97,29.83,5.0,South,6.9,-,0.04,,Overcast,190,2011-11-26 12:54:00
7:16 AM,53.6,51.8,94,29.82,2.5,South,8.1,-,0.02,Rain,Light Rain,180,2011-11-26 13:16:00
7:40 AM,53.6,51.8,94,29.82,5.0,South,8.1,-,0.05,Rain,Light Rain,180,2011-11-26 13:40:00
7:54 AM,54.0,52.0,93,29.82,3.0,South,8.1,-,0.06,Rain,Light Rain,190,2011-11-26 13:54:00
8:04 AM,53.6,51.8,94,29.82,1.8,South,9.2,-,N/A,Rain,Rain,180,2011-11-26 14:04:00
8:15 AM,53.6,51.8,94,29.82,2.0,South,10.4,-,0.05,Rain,Rain,170,2011-11-26 14:15:00
8:24 AM,53.6,53.6,100,29.82,3.0,SSE,10.4,-,0.06,Rain,Light Rain,160,2011-11-26 14:24:00
8:44 AM,55.4,53.6,94,29.81,9.0,South,8.1,-,N/A,Rain,Light Rain,180,2011-11-26 14:44:00
8:54 AM,55.4,53.6,94,29.81,7.0,South,8.1,-,N/A,Rain,Light Rain,180,2011-11-26 14:54:00
9:04 AM,55.4,53.6,94,29.82,5.0,South,9.2,-,0.00,Rain,Light Rain,170,2011-11-26 15:04:00
9:19 AM,55.4,53.6,94,29.81,3.0,South,8.1,-,0.01,Rain,Light Rain,170,2011-11-26 15:19:00
9:28 AM,55.4,53.6,94,29.81,2.5,South,9.2,-,0.04,Rain,Rain,170,2011-11-26 15:28:00
9:38 AM,55.4,53.6,94,29.81,3.0,South,9.2,-,0.05,Rain,Light Rain,170,2011-11-26 15:38:00
9:54 AM,55.4,53.6,94,29.81,2.5,South,8.1,-,N/A,Rain,Rain,180,2011-11-26 15:54:00
10:11 AM,55.4,53.6,94,29.82,2.5,South,11.5,19.6,0.04,Rain,Rain,180,2011-11-26 16:11:00
10:15 AM,55.4,53.6,94,29.82,3.0,South,12.7,19.6,0.04,Rain,Light Rain,180,2011-11-26 16:15:00
10:38 AM,55.4,53.6,94,29.82,4.0,South,12.7,-,0.08,Rain,Light Rain,180,2011-11-26 16:38:00
10:54 AM,55.9,54.0,93,29.81,4.0,South,12.7,-,0.11,Rain,Rain,180,2011-11-26 16:54:00
11:01 AM,55.4,53.6,94,29.81,2.5,South,11.5,-,0.02,Rain,Rain,180,2011-11-26 17:01:00
11:11 AM,55.4,53.6,94,29.80,3.0,South,12.7,-,0.05,Rain,Light Rain,180,2011-11-26 17:11:00
11:19 AM,55.4,53.6,94,29.80,2.5,South,11.5,-,0.08,Rain,Rain,180,2011-11-26 17:19:00
11:34 AM,57.2,55.4,94,29.79,3.0,South,13.8,-,0.10,Rain,Rain,180,2011-11-26 17:34:00
11:44 AM,57.2,55.4,94,29.78,2.0,South,13.8,-,0.14,Rain,Rain,180,2011-11-26 17:44:00
11:54 AM,57.0,55.0,93,29.78,2.5,South,12.7,24.2,0.18,Rain,Rain,180,2011-11-26 17:54:00
12:02 PM,57.2,55.4,94,29.77,3.0,South,12.7,20.7,0.02,Rain,Rain,170,2011-11-26 18:02:00
12:12 PM,57.2,55.4,94,29.77,2.5,South,12.7,19.6,0.06,Rain,Rain,180,2011-11-26 18:12:00
12:29 PM,53.6,51.8,94,29.78,1.2,NW,19.6,-,0.21,Rain,Heavy Rain,320,2011-11-26 18:29:00
12:35 PM,53.6,51.8,94,29.78,2.0,NNW,18.4,-,0.23,Rain,Rain,330,2011-11-26 18:35:00
12:45 PM,53.6,51.8,94,29.78,3.0,NNW,15.0,-,0.27,Rain,Rain,330,2011-11-26 18:45:00
12:54 PM,53.6,51.8,94,29.78,4.0,North,11.5,-,N/A,Rain,Rain,350,2011-11-26 18:54:00
1:02 PM,53.6,51.8,94,29.78,2.5,NNW,11.5,-,0.03,Rain,Heavy Rain,340,2011-11-26 19:02:00
1:17 PM,53.6,50.0,88,29.79,3.0,NNW,10.4,-,0.10,Rain,Heavy Rain,330,2011-11-26 19:17:00
1:29 PM,51.8,51.8,100,29.80,2.5,NNW,9.2,-,0.13,Rain,Rain,330,2011-11-26 19:29:00
1:40 PM,53.6,51.8,94,29.79,3.0,NNW,8.1,-,0.16,Rain,Rain,330,2011-11-26 19:40:00
1:54 PM,52.0,50.0,93,29.79,5.0,NNW,24.2,29.9,0.18,Rain,Light Rain,330,2011-11-26 19:54:00
2:54 PM,44.1,42.1,93,29.83,3.0,NW,17.3,25.3,0.05,Rain,Rain,320,2011-11-26 20:54:00
3:03 PM,44.6,41.0,87,29.82,2.5,NNW,19.6,26.5,0.01,Rain,Rain,330,2011-11-26 21:03:00
3:12 PM,44.6,41.0,87,29.82,4.0,NNW,20.7,27.6,0.02,Rain,Light Rain,330,2011-11-26 21:12:00
3:54 PM,43.0,41.0,93,29.86,2.5,NW,18.4,-,0.05,Rain,Light Rain,320,2011-11-26 21:54:00
4:01 PM,42.8,39.2,87,29.85,3.0,NNW,17.3,24.2,0.00,Rain,Light Rain,330,2011-11-26 22:01:00
4:11 PM,42.8,39.2,87,29.87,6.0,NW,15.0,24.2,0.00,Rain,Light Rain,320,2011-11-26 22:11:00
4:45 PM,42.8,41.0,93,29.86,5.0,NNW,18.4,-,0.01,Rain,Light Rain,330,2011-11-26 22:45:00
4:54 PM,43.0,39.9,89,29.87,5.0,NW,16.1,-,0.01,Rain,Light Rain,320,2011-11-26 22:54:00
5:38 PM,42.8,39.2,87,29.90,7.0,NW,24.2,28.8,0.03,Rain,Light Rain,320,2011-11-26 23:38:00
5:54 PM,41.0,39.2,93,29.90,7.0,NW,20.7,26.5,N/A,Rain,Light Rain,320,2011-11-26 23:54:00
6:54 PM,41.0,37.0,86,29.91,6.0,NW,21.9,31.1,0.05,Rain,Rain,320,2011-11-27 00:54:00
7:54 PM,39.2,37.4,93,29.92,10.0,NNW,21.9,28.8,N/A,Rain,Light Rain,330,2011-11-27 01:54:00
8:54 PM,39.9,36.0,86,29.96,10.0,NNW,19.6,26.5,0.00,Rain,Light Rain,330,2011-11-27 02:54:00
9:54 PM,39.9,36.0,86,29.97,10.0,NW,17.3,26.5,0.01,,Overcast,320,2011-11-27 03:54:00
10:10 PM,39.2,35.6,87,29.97,10.0,NNW,16.1,-,N/A,,Overcast,330,2011-11-27 04:10:00
10:22 PM,39.2,35.6,87,29.96,10.0,NW,18.4,-,N/A,,Overcast,320,2011-11-27 04:22:00
10:54 PM,39.0,35.1,86,29.96,10.0,NNW,20.7,32.2,N/A,,Overcast,330,2011-11-27 04:54:00
11:54 PM,37.4,33.8,87,29.96,10.0,NW,18.4,-,N/A,,Overcast,320,2011-11-27 05:54:00